Luverne, MN

3:03 AM CST on February 12, 2016 (GMT -0600)
Luverne

Weather History for KLYV - March, 2013

Change the Weather History Date:

Thursday, March 7, 2013

  Actual Average (KFSD) Record (KFSD)
Temperature  
Mean Temperature 28 °F 29 °F  
Max Temperature 35 °F 39 °F 80 °F (2000)
Min Temperature 21 °F 19 °F -11 °F (1996)
Degree Days  
Heating Degree Days 37 36  
Month to date heating degree days 260  
Since 1 July heating degree days 6110  
Cooling Degree Days 0 0  
Month to date cooling degree days 0  
Year to date cooling degree days 0  
Moisture  
Dew Point 23 °F    
Average Humidity 85    
Maximum Humidity 93    
Minimum Humidity 74    
Precipitation  
Precipitation 0.00 in 0.04 in 0.90 in (1917)
Month to date precipitation 0.25  
Year to date precipitation 1.41  
Snow  
Snow 0.00 in 0.30 in 6.00 in (1917)
Month to date snowfall 2.2  
Since 1 July snowfall 33.7  
Snow Depth -    
Sea Level Pressure  
Sea Level Pressure 30.19 in    
Wind  
Wind Speed 12 mph (SE)    
Max Wind Speed 20 mph    
Max Gust Speed 26 mph    
Visibility 8 miles    
Events      
T = Trace of Precipitation, MM = Missing Value Source: NWS Daily Summary

Daily Weather History Graph

Daily Weather History Graph

Search for Another Location

Airport or City:

Trip Planner

Search our weather history database for the weather conditions in past years. The results will help you decide how hot, cold, wet, or windy it might be!

Date:

Astronomy

Mar. 07, 2013 Rise Set
Actual Time 6:50 AM CST 6:21 PM CST
Civil Twilight 6:22 AM CST 6:50 PM CST
Nautical Twilight 5:48 AM CST 7:23 PM CST
Astronomical Twilight 5:15 AM CST 7:56 PM CST
Moon 3:58 AM CST (3/7) 2:04 PM CST (3/7)
Length of Visible Light 12h 28m
Length of Day
11h 30m
Waning Crescent, 20% of the Moon is Illuminated
Mar 7
Waning Crescent
Mar 11
New
Mar 19
First Quarter
Mar 27
Full
Apr 2
Last Quarter

Hourly Weather History & Observations

Time (CST) Temp. Windchill Dew Point Humidity Pressure Visibility Wind Dir Wind Speed Gust Speed Precip Events Conditions
12:17 AM 21.2 °F 13.6 °F 17.6 °F 86% 30.26 in 10.0 mi ESE 5.8 mph - N/A   Mostly Cloudy
12:37 AM 21.2 °F 13.6 °F 17.6 °F 86% 30.25 in 10.0 mi ESE 5.8 mph - N/A   Scattered Clouds
12:56 AM 21.2 °F 12.6 °F 17.6 °F 86% 30.25 in 10.0 mi SE 6.9 mph - N/A   Scattered Clouds
1:17 AM 21.2 °F 12.6 °F 17.6 °F 86% 30.26 in 10.0 mi SE 6.9 mph - N/A   Overcast
1:37 AM 21.2 °F 10.9 °F 19.4 °F 93% 30.27 in 10.0 mi SSE 9.2 mph - N/A   Overcast
1:56 AM 21.2 °F 10.9 °F 19.4 °F 93% 30.28 in 10.0 mi SE 9.2 mph - N/A   Overcast
2:17 AM 21.2 °F 10.1 °F 19.4 °F 93% 30.26 in 10.0 mi SE 10.4 mph - N/A   Overcast
2:37 AM 21.2 °F 8.3 °F 19.4 °F 93% 30.26 in 10.0 mi SE 13.8 mph 18.4 mph N/A   Overcast
2:56 AM 21.2 °F 10.9 °F 19.4 °F 93% 30.25 in 10.0 mi SE 9.2 mph - N/A   Overcast
3:17 AM 21.2 °F 8.9 °F 17.6 °F 86% 30.25 in 10.0 mi SE 12.7 mph - N/A   Overcast
3:37 AM 21.2 °F 8.3 °F 17.6 °F 86% 30.24 in 7.0 mi SE 13.8 mph - N/A   Overcast
3:56 AM 21.2 °F 8.3 °F 17.6 °F 86% 30.24 in 7.0 mi SE 13.8 mph - N/A   Overcast
4:17 AM 21.2 °F 9.5 °F 17.6 °F 86% 30.23 in 7.0 mi SE 11.5 mph - N/A   Overcast
4:37 AM 21.2 °F 10.1 °F 19.4 °F 93% 30.24 in 7.0 mi SE 10.4 mph - N/A   Overcast
4:56 AM 21.2 °F 10.9 °F 17.6 °F 86% 30.24 in 7.0 mi SE 9.2 mph - N/A   Overcast
5:17 AM 21.2 °F 9.5 °F 19.4 °F 93% 30.24 in 7.0 mi SE 11.5 mph - N/A   Overcast
5:37 AM 21.2 °F 10.1 °F 19.4 °F 93% 30.24 in 7.0 mi ESE 10.4 mph - N/A   Overcast
5:56 AM 21.2 °F 8.9 °F 19.4 °F 93% 30.23 in 7.0 mi SE 12.7 mph - N/A   Overcast
6:17 AM 21.2 °F 8.9 °F 19.4 °F 93% 30.24 in 7.0 mi SE 12.7 mph - N/A   Overcast
6:37 AM 21.2 °F 7.8 °F 19.4 °F 93% 30.24 in 7.0 mi SE 15.0 mph - N/A   Overcast
6:56 AM 21.2 °F 8.3 °F 19.4 °F 93% 30.24 in 7.0 mi SE 13.8 mph - N/A   Overcast
7:17 AM 21.2 °F 8.3 °F 17.6 °F 86% 30.24 in 5.0 mi SE 13.8 mph 23.0 mph N/A   Overcast
7:36 AM 21.2 °F 7.8 °F 17.6 °F 86% 30.24 in 7.0 mi SE 15.0 mph - N/A   Overcast
7:57 AM 21.2 °F 8.3 °F 19.4 °F 93% 30.23 in 7.0 mi SE 13.8 mph - N/A   Overcast
8:17 AM 21.2 °F 7.3 °F 19.4 °F 93% 30.23 in 7.0 mi SE 16.1 mph 23.0 mph N/A   Overcast
8:36 AM 21.2 °F 8.3 °F 19.4 °F 93% 30.22 in 7.0 mi SE 13.8 mph 21.9 mph N/A   Overcast
8:57 AM 23.0 °F 9.6 °F 19.4 °F 86% 30.21 in 7.0 mi SE 16.1 mph - N/A   Mostly Cloudy
9:17 AM 24.8 °F 11.9 °F 19.4 °F 80% 30.21 in 7.0 mi SE 16.1 mph 23.0 mph N/A   Scattered Clouds
9:36 AM 26.6 °F 13.8 °F 21.2 °F 80% 30.21 in 7.0 mi SSE 17.3 mph 20.7 mph N/A   Scattered Clouds
9:57 AM 26.6 °F 14.3 °F 21.2 °F 80% 30.21 in 7.0 mi SE 16.1 mph - N/A   Clear
10:17 AM 28.4 °F 16.6 °F 21.2 °F 74% 30.21 in 10.0 mi SE 16.1 mph - N/A   Clear
10:36 AM 28.4 °F 16.6 °F 21.2 °F 74% 30.20 in 10.0 mi SE 16.1 mph 20.7 mph N/A   Clear
10:57 AM 30.2 °F 19.3 °F 23.0 °F 75% 30.21 in 10.0 mi SSE 15.0 mph 18.4 mph N/A   Clear
11:17 AM 30.2 °F 20.2 °F 23.0 °F 75% 30.20 in 10.0 mi SE 12.7 mph 19.6 mph N/A   Clear
11:36 AM 30.2 °F 19.3 °F 23.0 °F 75% 30.20 in 10.0 mi SE 15.0 mph - N/A   Clear
11:57 AM 32.0 °F 21.2 °F 24.8 °F 75% 30.19 in 10.0 mi SE 16.1 mph - N/A   Clear
12:17 PM 32.0 °F 20.8 °F 24.8 °F 75% 30.19 in 10.0 mi SE 17.3 mph - N/A   Clear
12:36 PM 32.0 °F 21.2 °F 24.8 °F 75% 30.18 in 10.0 mi SSE 16.1 mph 21.9 mph N/A   Clear
12:57 PM 33.8 °F 23.5 °F 26.6 °F 75% 30.17 in 10.0 mi SE 16.1 mph - N/A   Clear
1:17 PM 33.8 °F 23.5 °F 26.6 °F 75% 30.15 in 7.0 mi ESE 16.1 mph 20.7 mph N/A   Clear
1:37 PM 33.8 °F 22.8 °F 28.4 °F 81% 30.14 in 10.0 mi SE 18.4 mph - N/A   Clear
1:57 PM 33.8 °F 22.5 °F 28.4 °F 81% 30.13 in 10.0 mi SE 19.6 mph - N/A   Clear
2:16 PM 33.8 °F 23.2 °F 28.4 °F 81% 30.12 in 10.0 mi SE 17.3 mph 25.3 mph N/A   Clear
2:37 PM 35.6 °F 24.8 °F 28.4 °F 75% 30.12 in 10.0 mi SE 19.6 mph 26.5 mph N/A   Clear
2:56 PM 35.6 °F 25.5 °F 28.4 °F 75% 30.12 in 10.0 mi SE 17.3 mph 26.5 mph N/A   Clear
3:17 PM 35.6 °F 25.2 °F 28.4 °F 75% 30.13 in 10.0 mi SE 18.4 mph 25.3 mph N/A   Clear
3:37 PM 35.6 °F 25.9 °F 28.4 °F 75% 30.14 in 10.0 mi SE 16.1 mph 21.9 mph N/A   Clear
3:56 PM 35.6 °F 25.2 °F 28.4 °F 75% 30.13 in 10.0 mi SSE 18.4 mph 23.0 mph N/A   Clear
4:17 PM 33.8 °F 23.5 °F 28.4 °F 81% 30.12 in 10.0 mi SE 16.1 mph 21.9 mph N/A   Clear
4:37 PM 33.8 °F 23.2 °F 28.4 °F 81% 30.11 in 10.0 mi SE 17.3 mph 24.2 mph N/A   Clear
4:56 PM 33.8 °F 23.5 °F 30.2 °F 87% 30.11 in 10.0 mi SE 16.1 mph 23.0 mph N/A   Clear
5:17 PM 33.8 °F 23.2 °F 30.2 °F 87% 30.11 in 7.0 mi SE 17.3 mph 23.0 mph N/A   Clear
5:36 PM 33.8 °F 23.2 °F 28.4 °F 81% 30.12 in 7.0 mi SE 17.3 mph 20.7 mph N/A   Clear
5:57 PM 33.8 °F 24.3 °F 28.4 °F 81% 30.12 in 7.0 mi SE 13.8 mph - N/A   Clear
7:36 PM 32.0 °F 23.6 °F 28.4 °F 87% 30.16 in 7.0 mi SE 10.4 mph - N/A   Clear
7:57 PM 32.0 °F 22.5 °F 28.4 °F 87% 30.15 in 7.0 mi SE 12.7 mph - N/A   Clear
8:16 PM 32.0 °F 23.6 °F 28.4 °F 87% 30.16 in 7.0 mi SE 10.4 mph 17.3 mph N/A   Clear
8:37 PM 32.0 °F 22.5 °F 28.4 °F 87% 30.16 in 5.0 mi SE 12.7 mph - N/A   Clear
8:57 PM 32.0 °F 21.6 °F 28.4 °F 87% 30.16 in 5.0 mi SE 15.0 mph - N/A   Clear
9:16 PM 32.0 °F 23.0 °F 28.4 °F 87% 30.17 in 5.0 mi SSE 11.5 mph - N/A   Clear
9:37 PM 30.2 °F 21.9 °F 28.4 °F 93% 30.17 in 5.0 mi SSE 9.2 mph - N/A   Clear
9:57 PM 30.2 °F 20.8 °F 26.6 °F 86% 30.17 in 5.0 mi SSE 11.5 mph - N/A   Clear
10:16 PM 30.2 °F 20.8 °F 26.6 °F 86% 30.17 in 5.0 mi SSE 11.5 mph 16.1 mph N/A   Clear
10:37 PM 30.2 °F 21.9 °F 26.6 °F 86% 30.18 in 5.0 mi SSE 9.2 mph - N/A   Clear
10:57 PM 30.2 °F 22.6 °F 26.6 °F 86% 30.19 in 5.0 mi SE 8.1 mph - N/A   Clear
11:16 PM 30.2 °F 21.3 °F 26.6 °F 86% 30.19 in 5.0 mi SSE 10.4 mph - N/A   Clear
11:37 PM 30.2 °F 22.6 °F 26.6 °F 86% 30.19 in 5.0 mi SSE 8.1 mph - N/A   Clear
11:57 PM 30.2 °F 21.9 °F 26.6 °F 86% 30.19 in 5.0 mi SSE 9.2 mph - N/A   Haze